COSMOS 249 DEB, 3793

Orbit data source: Space-Track

COSMOS 249 DEB, 3793 is space debris in LEO originally from a launch on Sun, 20 Oct 1968 UTC launched from the Tyuratam Missile And Space Complex (TTMTR). Debris objects in space refer to the collection of defunct objects orbiting the Earth. Examples of debris include non-operational satellites, rocket bodies, and fragments generated from explosions, collisions, or faulty payload assembly.

Loading next visibility...
Identifier
3793, 1968-091BA
Orbit
LEO
Country
Flag of CISCIS
Related business
Manufacturer
Unknown
Mission
Spacecraft
Bus & Motor
Unknown
Mass
Unknown
Launch date (UTC)
1968-10-20 (58 years ago)
Launch vehicle
Unknown
Launch site
Tyuratam Missile And Space Complex (TTMTR)
Object type
Payload
Rocket body
Debris
Shape & HBR
Unknown shape, 1.1 m
Radar Cross Section
Small (<0.1 m²)

Expand to show TLE details & history
Last TLE update: 20 hours ago

TLE from 20 hours ago
0 COSMOS 249 DEB
1 03793U 68091BA  26126.06303537  .00000894  00000-0  90222-3 0  9999
2 03793  62.2235 359.5250 0606063 324.4437  31.7557 13.21510809695818
Epoch: 2026-05-06T01:30Z
TLE epoch observation values (Epoch: 2026-05-06T01:30:46.255Z)
Latitude
-0.0001°
Longitude
112.90331°
Altitude
799.472 km
Speed
7.64 km/s
True Right ascension
23h 58m 05s
True Declination
0° 00' 00"
Sunlit
Object was in daylight at epoch
Visualization orbit readout
Latitude
Unknown
Longitude
Unknown
Altitude
Unknown
Speed
Unknown
Apparent Right ascension
Unknown
Apparent Declination
Unknown
Sunlit
N/A
Visualization observer readout
Local Sidereal Time
05:08:32
Azimuth
Unknown
Elevation
Unknown
Doppler factor
Unknown
Orbital elements
Apogee altitude
1,635.884 km
Perigee altitude
719.993 km
Semi-major axis
7,556.075 km
Eccentricity
0.06061
Inclination
62.2235°
RAAN
359.525°
Arg. of periapsis
324.4437°
True anomaly
35.65869°
Mean anomaly
31.7557°
Eccentric anomaly
33.68145°
Mean motion
3.30445 °/min
Orbital period
108.94 mins
BSTAR
0.00090222
Loading maneuver chart data...
Computing Atmospheric mass density...
Loading historical data...
Loading historical data...
Loading historical data...
Loading historical data...
Loading historical data...
Loading historical data...
Loading historical data...

Documentation

Showing up to 5 results
|